Weather History for KCOQ - October, 2012

Change the Weather History Date:

Thursday, October 11, 2012

  Actual Average (KDLH) Record (KDLH)
Temperature  
Mean Temperature 36 °F 45 °F  
Max Temperature 42 °F 54 °F 79 °F (1995)
Min Temperature 30 °F 36 °F 21 °F (1936)
Degree Days  
Heating Degree Days 29 20  
Month to date heating degree days 197  
Since 1 July heating degree days 644  
Cooling Degree Days 0 0  
Month to date cooling degree days 0  
Year to date cooling degree days 204  
Moisture  
Dew Point 25 °F    
Average Humidity 68    
Maximum Humidity 93    
Minimum Humidity 36    
Precipitation  
Precipitation 0.07 in 0.09 in 1.30 in (1881)
Month to date precipitation 1.17  
Year to date precipitation 25.98  
Snow  
Snow 0.00 in 0.00 in 1.00 in (1917)
Month to date snowfall 0.3  
Since 1 July snowfall 0.4  
Since 1 September snowfall 0.4  
Snow Depth -    
Sea Level Pressure  
Sea Level Pressure 30.09 in    
Wind  
Wind Speed 7 mph (WNW)    
Max Wind Speed 17 mph    
Max Gust Speed 25 mph    
Visibility 9 miles    
Events Snow    
T = Trace of Precipitation, MM = Missing Value Source: NWS Daily Summary

Daily Weather History Graph

Daily Weather History Graph

Search for Another Location

Airport or City:

Trip Planner

Search our weather history database for the weather conditions in past years. The results will help you decide how hot, cold, wet, or windy it might be!

Date:

Astronomy

Oct. 11, 2012 Rise Set
Actual Time 7:22 AM CDT 6:29 PM CDT
Civil Twilight 6:52 AM CDT 6:59 PM CDT
Nautical Twilight 6:17 AM CDT 7:34 PM CDT
Astronomical Twilight 5:42 AM CDT 8:09 PM CDT
Moon 2:47 AM CDT (10/11) 4:18 PM CDT (10/11)
Length of Visible Light 12h 07m
Length of Day
11h 06m
Waning Crescent, 18% of the Moon is Illuminated
Oct 11
Waning Crescent
Oct 15
New
Oct 21
First Quarter
Oct 29
Full
Nov 6
Last Quarter

Hourly Weather History & Observations

Time (CDT) Temp. Windchill Dew Point Humidity Pressure Visibility Wind Dir Wind Speed Gust Speed Precip Events Conditions
12:16 AM 33.8 °F 27.7 °F 30.2 °F 87% 29.90 in 5.0 mi North 6.9 mph - 0.03 in Snow Light Snow
12:36 AM 33.8 °F - 30.2 °F 87% 29.90 in 5.0 mi Calm Calm - 0.04 in   Overcast
12:56 AM 33.8 °F 30.8 °F 30.2 °F 87% 29.89 in 4.0 mi South 3.5 mph - N/A   Overcast
1:16 AM 33.8 °F - 30.2 °F 87% 29.88 in 3.0 mi Calm Calm - 0.02 in Snow Light Snow
1:36 AM 33.8 °F - 30.2 °F 87% 29.87 in 4.0 mi Calm Calm - 0.04 in Snow Snow
1:56 AM 33.8 °F - 30.2 °F 87% 29.87 in 3.0 mi Calm Calm - N/A   Overcast
2:16 AM 33.8 °F - 30.2 °F 87% 29.87 in 5.0 mi Calm Calm - 0.01 in   Overcast
2:36 AM 33.8 °F - 30.2 °F 87% 29.87 in 4.0 mi Calm Calm - 0.02 in   Overcast
2:56 AM 33.8 °F - 30.2 °F 87% 29.87 in 1.8 mi Calm Calm - N/A   Overcast
3:16 AM 33.8 °F - 30.2 °F 87% 29.88 in 4.0 mi Calm Calm - 0.01 in   Overcast
3:36 AM 33.8 °F 29.6 °F 32.0 °F 93% 29.88 in 7.0 mi NW 4.6 mph - 0.01 in   Overcast
3:56 AM 33.8 °F 27.0 °F 30.2 °F 87% 29.89 in 5.0 mi NNW 8.1 mph - N/A Snow Light Snow
4:16 AM 33.8 °F 28.6 °F 30.2 °F 87% 29.90 in 7.0 mi NNW 5.8 mph - N/A Snow Light Snow
4:36 AM 33.8 °F 27.0 °F 30.2 °F 87% 29.91 in 10.0 mi NW 8.1 mph - N/A   Overcast
4:56 AM 33.8 °F 29.6 °F 30.2 °F 87% 29.91 in 10.0 mi NW 4.6 mph - N/A   Overcast
5:16 AM 33.8 °F 26.4 °F 30.2 °F 87% 29.92 in 10.0 mi NW 9.2 mph - N/A   Overcast
5:36 AM 33.8 °F 27.7 °F 30.2 °F 87% 29.93 in 10.0 mi NW 6.9 mph - N/A   Scattered Clouds
5:56 AM 33.8 °F 28.6 °F 30.2 °F 87% 29.93 in 10.0 mi NW 5.8 mph - N/A   Clear
6:16 AM 33.8 °F 27.0 °F 30.2 °F 87% 29.94 in 10.0 mi NW 8.1 mph - N/A   Scattered Clouds
6:36 AM 33.8 °F 27.0 °F 30.2 °F 87% 29.95 in 10.0 mi NW 8.1 mph - N/A   Mostly Cloudy
6:56 AM 33.8 °F 27.7 °F 30.2 °F 87% 29.96 in 10.0 mi WNW 6.9 mph - N/A   Mostly Cloudy
7:16 AM 33.8 °F 26.4 °F 30.2 °F 87% 29.96 in 10.0 mi NW 9.2 mph - N/A   Overcast
7:36 AM 33.8 °F 27.0 °F 30.2 °F 87% 29.97 in 10.0 mi WNW 8.1 mph - N/A   Overcast
7:56 AM 33.8 °F 27.7 °F 30.2 °F 87% 29.98 in 10.0 mi WNW 6.9 mph - N/A   Overcast
8:16 AM 33.8 °F 27.7 °F 30.2 °F 87% 30.00 in 10.0 mi WNW 6.9 mph - N/A   Scattered Clouds
8:36 AM 33.8 °F 27.0 °F 30.2 °F 87% 30.01 in 10.0 mi WNW 8.1 mph - N/A   Scattered Clouds
8:56 AM 33.8 °F 25.8 °F 30.2 °F 87% 30.02 in 10.0 mi WNW 10.4 mph - N/A   Scattered Clouds
9:16 AM 35.6 °F 27.1 °F 30.2 °F 81% 30.03 in 10.0 mi WNW 12.7 mph - N/A   Scattered Clouds
9:36 AM 35.6 °F 27.5 °F 28.4 °F 75% 30.04 in 10.0 mi WNW 11.5 mph - N/A   Clear
9:56 AM 35.6 °F 27.1 °F 28.4 °F 75% 30.06 in 10.0 mi WNW 12.7 mph 19.6 mph N/A   Clear
10:16 AM 35.6 °F 27.1 °F 28.4 °F 75% 30.07 in 10.0 mi WNW 12.7 mph 21.9 mph N/A   Mostly Cloudy
10:36 AM 35.6 °F 25.9 °F 26.6 °F 70% 30.08 in 10.0 mi NW 16.1 mph 23.0 mph N/A   Mostly Cloudy
10:56 AM 35.6 °F 26.2 °F 26.6 °F 70% 30.09 in 10.0 mi NW 15.0 mph 18.4 mph N/A   Overcast
11:16 AM 35.6 °F 26.6 °F 26.6 °F 70% 30.11 in 10.0 mi NW 13.8 mph 23.0 mph N/A   Overcast
11:36 AM 37.4 °F 28.5 °F 26.6 °F 65% 30.12 in 10.0 mi NW 15.0 mph 23.0 mph N/A   Mostly Cloudy
11:56 AM 37.4 °F 28.5 °F 24.8 °F 60% 30.12 in 10.0 mi NNW 15.0 mph 24.2 mph N/A   Scattered Clouds
12:16 PM 37.4 °F 28.9 °F 26.6 °F 65% 30.12 in 10.0 mi West 13.8 mph 20.7 mph N/A   Scattered Clouds
1:16 PM 37.4 °F 28.9 °F 23.0 °F 56% 30.13 in 10.0 mi NW 13.8 mph 24.2 mph N/A   Mostly Cloudy
1:36 PM 41.0 °F 33.5 °F 23.0 °F 49% 30.13 in 10.0 mi WNW 13.8 mph 23.0 mph N/A   Mostly Cloudy
1:56 PM 39.2 °F 31.2 °F 21.2 °F 49% 30.14 in 10.0 mi NW 13.8 mph 20.7 mph N/A   Mostly Cloudy
2:16 PM 39.2 °F 30.2 °F 21.2 °F 49% 30.15 in 10.0 mi WNW 17.3 mph 25.3 mph N/A   Scattered Clouds
2:36 PM 42.8 °F 35.8 °F 21.2 °F 42% 30.15 in 10.0 mi WNW 13.8 mph 19.6 mph N/A   Mostly Cloudy
2:56 PM 42.8 °F 36.6 °F 19.4 °F 39% 30.16 in 10.0 mi West 11.5 mph 24.2 mph N/A   Mostly Cloudy
3:16 PM 41.0 °F 33.9 °F 17.6 °F 39% 30.16 in 10.0 mi West 12.7 mph 24.2 mph N/A   Overcast
3:36 PM 41.0 °F 34.3 °F 17.6 °F 39% 30.17 in 10.0 mi WNW 11.5 mph 20.7 mph N/A   Mostly Cloudy
3:56 PM 42.8 °F 36.6 °F 19.4 °F 39% 30.17 in 10.0 mi NW 11.5 mph 16.1 mph N/A   Mostly Cloudy
4:16 PM 42.8 °F 34.8 °F 17.6 °F 36% 30.18 in 10.0 mi WNW 17.3 mph - N/A   Mostly Cloudy
4:36 PM 41.0 °F 33.5 °F 17.6 °F 39% 30.18 in 10.0 mi West 13.8 mph 18.4 mph N/A   Overcast
5:16 PM 42.8 °F 36.6 °F 17.6 °F 36% 30.20 in 10.0 mi WNW 11.5 mph - N/A   Overcast
5:36 PM 41.0 °F 35.8 °F 17.6 °F 39% 30.20 in 10.0 mi West 8.1 mph - N/A   Overcast
5:56 PM 41.0 °F 33.5 °F 15.8 °F 36% 30.21 in 10.0 mi WNW 13.8 mph 18.4 mph N/A   Overcast
6:16 PM 39.2 °F 33.0 °F 17.6 °F 42% 30.22 in 10.0 mi WNW 9.2 mph - N/A   Mostly Cloudy
6:36 PM 37.4 °F 32.8 °F 17.6 °F 45% 30.23 in 10.0 mi WNW 5.8 mph - N/A   Mostly Cloudy
6:56 PM 35.6 °F 31.7 °F 17.6 °F 48% 30.24 in 10.0 mi WNW 4.6 mph - N/A   Scattered Clouds
7:16 PM 35.6 °F 32.8 °F 19.4 °F 52% 30.25 in 10.0 mi WNW 3.5 mph - N/A   Scattered Clouds
7:36 PM 35.6 °F 31.7 °F 19.4 °F 52% 30.25 in 10.0 mi WNW 4.6 mph - N/A   Scattered Clouds
7:56 PM 35.6 °F 32.8 °F 19.4 °F 52% 30.26 in 10.0 mi WNW 3.5 mph - N/A   Mostly Cloudy
8:16 PM 33.8 °F 30.8 °F 19.4 °F 56% 30.27 in 10.0 mi WNW 3.5 mph - N/A   Mostly Cloudy
8:36 PM 33.8 °F 29.6 °F 19.4 °F 56% 30.28 in 10.0 mi WNW 4.6 mph - N/A   Scattered Clouds
8:56 PM 32.0 °F 26.4 °F 19.4 °F 60% 30.28 in 10.0 mi WNW 5.8 mph - N/A   Clear
9:16 PM 32.0 °F 26.4 °F 17.6 °F 55% 30.29 in 10.0 mi West 5.8 mph - N/A   Clear
9:36 PM 32.0 °F 27.5 °F 17.6 °F 55% 30.30 in 10.0 mi West 4.6 mph - N/A   Clear
9:56 PM 30.2 °F 25.4 °F 17.6 °F 60% 30.30 in 10.0 mi West 4.6 mph - N/A   Clear
10:36 PM 30.2 °F 24.3 °F 19.4 °F 64% 30.31 in 10.0 mi West 5.8 mph - N/A   Clear
10:56 PM 30.2 °F 23.4 °F 19.4 °F 64% 30.32 in 10.0 mi West 6.9 mph - N/A   Clear
11:16 PM 30.2 °F 25.4 °F 19.4 °F 64% 30.33 in 10.0 mi WNW 4.6 mph - N/A   Clear
11:36 PM 30.2 °F 24.3 °F 19.4 °F 64% 30.33 in 10.0 mi WNW 5.8 mph - N/A   Clear
11:56 PM 30.2 °F 24.3 °F 19.4 °F 64% 30.33 in 10.0 mi WNW 5.8 mph - N/A   Clear